#timestamp,LO_Frequency,Hit 
1499133615.2,286047005.2,N
1499133635.9,286047005.4,N
1499133655.7,286047005.5,N
1499133675.6,286047006.0,N
1499133695.4,286047003.3,N
1499133715.2,286047003.5,N
1499133735.1,286047003.2,N
1499133736.0,286047003.2,N
1499133755.8,286047005.5,N
1499133775.7,286047003.3,N
1499133795.5,286047003.3,N
1499133815.3,286047005.9,N
1499133835.2,286047003.1,N
1499133855.0,286047006.0,N
1499133855.9,286047006.0,N
1499133875.8,286047003.8,N
1499133895.6,286047003.4,N
1499133915.4,286047003.5,N
1499133935.3,286047006.0,N
1499133955.1,286047002.9,N
1499133975.8,286047003.0,N
1499133995.7,286047003.6,N
1499134015.5,286047004.1,N
1499134035.4,286047004.1,N
1499134055.2,286047001.7,N
1499134075.0,286047001.8,N
1499134075.9,286047001.8,N
1499134095.8,286047001.8,N
1499134115.6,286047001.5,N
1499134135.4,286047001.9,N
1499134155.3,286047002.4,N
1499134175.1,286046999.8,N
1499134195.9,286047000.2,N
1499134215.7,286047002.6,N
1499134235.5,286047000.6,N
1499134255.4,286047000.5,N
1499134275.2,286047000.5,N
1499134295.0,286047001.2,N
1499134295.9,286047001.2,N
1499134315.8,286047000.8,N
1499134335.6,286047000.8,N
1499134355.5,286047000.7,N
1499134375.3,286047001.2,N
1499134395.1,286046998.5,N
1499134415.9,286046998.6,N
1499134435.7,286046998.1,N
1499134455.5,286046998.2,N
1499134475.4,286047001.0,N
1499134495.2,286047000.5,N
1499134515.1,286047001.0,N
1499134516.0,286047001.0,N
1499134535.8,286046998.2,N
1499134555.6,286047000.8,N
1499134575.5,286046998.8,N
1499134595.3,286047001.2,N
1499134615.1,286047000.5,N
1499134635.9,286047000.0,N
1499134655.7,286046999.9,N
1499134675.6,286046999.8,N
1499134695.4,286046999.8,N
1499134715.2,286047002.6,N
1499134735.1,286047001.6,N
1499134736.0,286047001.6,N
1499134755.8,286047001.8,N
1499134775.6,286047001.5,N
1499134795.5,286047001.5,N
1499134815.3,286047001.5,N
1499134835.2,286047002.2,N
1499134855.9,286047002.7,N
1499134875.7,286047002.6,N
1499134895.6,286047002.3,N
1499134915.4,286047002.5,N
1499134935.2,286047002.3,N
1499134955.1,286047002.4,N
1499134956.0,286047002.4,N
1499134975.8,286047002.7,N
1499134995.7,286047000.1,N
1499135015.5,286047002.8,N
1499135035.3,286047002.6,N
1499135055.2,286047000.2,N
1499135075.0,286047002.4,N
1499135075.9,286047002.4,N
1499135095.7,286047002.4,N
1499135115.6,286047002.3,N
1499135135.4,286047004.3,N
1499135155.3,286047001.4,N
1499135175.1,286047004.4,N
1499135176.0,286047004.4,N
1499135195.8,286047001.7,N
1499135215.7,286047004.1,N
1499135235.5,286047001.6,N
1499135255.4,286047001.3,N
1499135275.2,286047001.6,N
1499135295.0,286047002.6,N
1499135295.9,286047002.6,N
1499135315.8,286047001.9,N
1499135335.6,286047001.4,N
1499135355.4,286047002.1,N
1499135375.3,286047004.3,N
1499135395.1,286047001.8,N
1499135415.9,286047001.9,N
1499135435.7,286047003.9,N
1499135455.5,286047004.3,N
1499135475.4,286047001.4,N
1499135495.2,286047004.3,N
1499135515.1,286047004.3,N
1499135516.0,286047004.3,N
1499135535.8,286047001.8,N
1499135555.6,286047001.7,N
1499135575.5,286047001.5,N
1499135595.3,286047004.4,N
1499135615.1,286047001.3,N
1499135635.9,286047003.5,N
1499135655.7,286047001.3,N
1499135675.6,286047003.8,N
1499135695.4,286047003.5,N
1499135715.2,286047003.4,N
1499135735.1,286047005.9,N
1499135736.0,286047005.9,N
1499135755.8,286047003.3,N
1499135775.6,286047002.9,N
1499135795.5,286047003.2,N
1499135815.3,286047002.9,N
1499135835.2,286047003.3,N
1499135855.9,286047004.4,N
1499135875.7,286047001.7,N
1499135895.6,286047004.3,N
1499135915.4,286047003.8,N
1499135935.2,286047003.4,N
1499135955.1,286047006.0,N
1499135956.0,286047006.0,N
1499135975.8,286047005.6,N
1499135995.7,286047005.9,N
1499136015.5,286047005.7,N
1499136035.4,286047003.0,N
1499136055.2,286047003.2,N
1499136075.0,286047003.2,N
1499136075.9,286047003.2,N
1499136095.8,286047003.2,N
1499136115.6,286047005.9,N
1499136135.4,286047005.5,N
1499136155.3,286047003.1,N
1499136175.1,286047003.0,N
1499136195.9,286047001.4,N
1499136215.7,286047001.5,N
1499136235.5,286047001.3,N
1499136255.4,286047001.6,N
1499136275.2,286047001.8,N
1499136295.0,286047002.0,N
1499136295.9,286047002.0,N
1499136315.8,286047000.1,N
1499136335.6,286047002.3,N
1499136355.5,286047002.5,N
1499136375.3,286047002.3,N
1499136395.1,286047002.7,N
1499136415.9,286047011.9,Y
1499136435.7,286046999.6,N
1499136455.6,286046996.8,N
1499136475.4,286046997.5,N
1499136495.2,286046995.4,N
1499136515.1,286046995.0,N
1499136516.0,286046995.0,N
1499136535.8,286046995.4,N
1499136555.6,286046995.1,N
1499136575.5,286046995.4,N
1499136595.3,286046997.1,N
1499136615.2,286046995.5,N
1499136635.9,286046995.3,N
1499136655.8,286046995.2,N
1499136675.7,286046996.2,N
1499136695.5,286046993.7,N
1499136715.3,286046993.9,N
1499136735.2,286046994.0,N
1499136755.0,286046994.2,N
1499136755.9,286046994.2,N
1499136775.7,286046993.8,N
1499136795.6,286046993.8,N
1499136815.4,286046993.6,N
1499136835.3,286046995.9,N
1499136855.1,286046995.9,N
1499136856.0,286046995.9,N
1499136875.8,286046993.4,N
1499136895.7,286046993.4,N
1499136915.5,286046994.0,N
1499136935.3,286046992.0,N
1499136955.2,286046992.9,N
1499136975.0,286046991.8,N
1499136975.9,286046991.8,N
1499136995.8,286046991.9,N
1499137015.6,286046991.8,N
1499137035.4,286046992.4,N
1499137055.3,286046992.5,N
1499137075.1,286046992.7,N
1499137095.8,286046992.2,N
1499137115.7,286046992.5,N
1499137135.5,286046992.8,N
1499137155.4,286046992.0,N
1499137175.2,286046994.8,N
1499137195.0,286046991.9,N
1499137195.9,286046991.9,N
